Hourly Data Report for October 06, 2017

All times are specified in Local Standard Time (LST). Add 1 hour to adjust for Daylight Saving Time where and when it is observed.

VICTORIA HARBOUR A
BRITISH COLUMBIA

48°25'22.000" N
123°23'15.000" W
     
1018633
YWH

Related Data

No related data is available for this station

Download Data

Hourly Data (October 2017)
Hourly Data Report for October 6, 2017
Temp Definition
°C
Dew Point Temp Definition
°C
Rel Hum Definition
%
Wind Dir Definition
10's deg

Wind Spd Definition
km/h
Visibility Definition
km
Stn Press Definition
kPa
Hmdx Definition


Wind Chill Definition


Weather Definition


TIME
00:00 Legend Double Dagger 8.2 5.2 81 1 5 LegendMM 101.96     LegendNANA
01:00 Legend Double Dagger 8.0 5.5 85 3 5 LegendMM 101.93     LegendNANA
02:00 Legend Double Dagger 7.0 5.0 87 33 3 LegendMM 101.92     LegendNANA
03:00 Legend Double Dagger 6.4 4.7 89 36 8 LegendMM 101.91     LegendNANA
04:00 Legend Double Dagger 7.7 6.4 91 27 2 LegendMM 101.83     LegendNANA
05:00 Legend Double Dagger 9.8 8.1 89 20 9 LegendMM 101.83     LegendNANA
06:00 Legend Double Dagger 11.6 7.9 78 23 23 LegendMM 101.75     LegendNANA
07:00 Legend Double Dagger 11.9 9.5 85 23 28 LegendMM 101.74     LegendNANA
08:00 Legend Double Dagger 11.8 10.2 89 23 17 LegendMM 101.78     LegendNANA
09:00 Legend Double Dagger 11.6 9.5 87 16 14 LegendMM 101.73     LegendNANA
10:00 Legend Double Dagger 11.5 7.8 78 16 21 LegendMM 101.66     LegendNANA
11:00 Legend Double Dagger 14.2 11.1 82 26 33 LegendMM 101.60     LegendNANA
12:00 Legend Double Dagger 13.2 11.4 88 27 28 LegendMM 101.60     LegendNANA
13:00 Legend Double Dagger 14.0 10.5 79 26 24 LegendMM 101.50     LegendNANA
14:00 Legend Double Dagger 14.3 9.7 74 25 22 LegendMM 101.42     LegendNANA
15:00 Legend Double Dagger 13.6 9.8 78 21 17 LegendMM 101.40     LegendNANA
16:00 Legend Double Dagger 13.3 10.3 82 20 12 LegendMM 101.33     LegendNANA
17:00 Legend Double Dagger 12.0 10.9 93 17 13 LegendMM 101.22     LegendNANA
18:00 Legend Double Dagger 12.2 11.1 93 21 23 LegendMM 101.18     LegendNANA
19:00 Legend Double Dagger 12.5 11.0 91 21 20 LegendMM 101.11     LegendNANA
20:00 Legend Double Dagger 12.1 9.7 86 23 20 LegendMM 101.12     LegendNANA
21:00 Legend Double Dagger 11.4 9.2 86 24 27 LegendMM 101.16     LegendNANA
22:00 Legend Double Dagger 11.4 9.0 85 26 22 LegendMM 101.16     LegendNANA
23:00 Legend Double Dagger 11.6 8.9 83 27 22 LegendMM 101.22     LegendNANA

Notes on Data Quality.

Legend

  • E = Estimated
  • M = Missing
  • NA = Not Available
  • ‡ = Partner data that is not subject to review by the National Climate Archives
Date modified: